Location: Grantsboro
(35.1404°N, 76.8424°W)
Time: 21:14:10
(UTC+00:00)

SL-8 R/B - Pass Details

Date: 18 January 2020
Orbit: 656 x 668 km, 48.4° (Epoch: 16 February)

Event Time Altitude Azimuth Distance (km) Brightness Sun altitude
Rises 00:11:53 0° 225° (SW) 2,985 7.9 -22.5°
Reaches altitude 10° 00:14:14 10° 222° (SW) 2,074 6.9 -23.0°
Maximum altitude 00:19:00 70° 140° (SE) 705 3.6 -24.0°
Enters shadow 00:19:00 70° 139° (SE) 705 3.6 -24.0°
